Location: ???????
(55.4362°N, 38.1183°E)
Time: 00:00:46
(UTC+00:00)

N. Korean satellite - Visible Passes

Search period start: 29 September 2021 00:00
Search period end: 09 October 2021 00:00
Orbit: 449 x 498 km, 97.3° (Epoch: 28 September)

Date Brightness Start Highest point End Pass type
(mag) Time Alt. Az. Time Alt. Az. Time Alt. Az.
29 Sep 9.9 01:39:08 10° ENE 01:40:50 13° E 01:42:32 10° ESE visible
30 Sep 7.5 02:43:09 10° NNE 02:46:41 54° E 02:50:13 10° S visible
01 Oct 8.9 02:15:33 10° NNE 02:18:42 28° E 02:21:52 10° SSE visible
02 Oct 9.8 01:48:19 10° NE 01:50:37 16° E 01:52:55 10° SE visible
03 Oct 7.0 02:52:44 10° NNE 02:56:20 69° ESE 02:59:57 10° S visible
04 Oct 8.4 02:25:01 10° NNE 02:28:22 35° E 02:31:44 10° SSE visible
05 Oct 9.6 01:57:34 10° NE 02:00:16 20° E 02:02:59 10° SE visible
06 Oct 10.2 01:31:02 10° ENE 01:32:04 11° E 01:33:05 10° ESE visible
07 Oct 7.9 02:34:23 10° NNE 02:37:53 44° E 02:41:24 10° S visible
08 Oct 9.2 02:06:46 10° NE 02:09:48 24° E 02:12:49 10° SSE visible
